Lid_Strength_Index
2 2 2 2 2 3 3 3 3 3 3 3 3 3 3 3 3 2 2 2 3 3 3 3 2 2 1 4 3 -1 -3 -2 2 3 5 6 5 6 7 6 6 7 7 6 6 6 6
2 2 2 2 2 2 2 2 2 2 3 2 3 3 3 3 3 3 3 3 4 4 3 3 2 2 2 5 -0 -1 1 1 3 3 4 4 5 3 5 6 7 6 6 6 6 6 6
2 2 2 2 2 2 2 2 2 2 3 3 3 2 3 3 3 3 3 4 4 4 3 2 2 1 3 3 -0 -1 -0 1 3 3 5 4 4 4 4 7 5 6 8 7 7 7 8
2 2 2 2 2 2 2 2 2 2 2 2 2 2 2 3 3 3 4 4 3 3 3 2 1 1 4 -0 -1 1 2 3 2 3 4 4 4 3 5 4 6 8 8 11 8 7 7
1 1 2 1 1 2 2 2 2 2 2 3 3 3 3 3 3 3 4 4 2 2 2 1 1 2 4 0 2 0 1 4 4 4 4 5 2 4 5 7 8 8 10 11 10 7 7
1 1 1 1 2 2 2 2 2 2 2 3 3 3 3 3 4 4 4 4 1 1 1 0 1 4 3 4 2 1 0 2 3 4 6 6 4 6 6 8 12 10 10 9 10 8 8
1 1 1 2 2 2 2 2 2 2 2 3 3 3 3 3 4 5 4 0 3 3 2 4 3 4 3 2 2 2 1 2 3 4 6 6 6 8 7 7 7 8 8 10 9 8 9
1 1 2 2 2 2 2 2 2 2 2 3 3 3 3 4 4 5 3 2 4 4 5 3 4 3 2 3 5 3 1 5 5 6 5 6 7 5 6 6 7 7 9 10 9 8 8
1 2 2 2 2 2 2 2 3 3 3 3 3 4 4 5 4 4 3 2 2 4 5 4 3 3 3 3 5 4 3 4 6 6 6 7 6 5 6 7 8 7 9 9 10 9 8
2 2 2 2 2 2 2 2 3 3 3 3 3 4 4 6 5 2 3 2 3 3 7 6 5 3 3 3 6 3 2 4 6 7 6 6 5 6 7 7 6 8 6 8 9 10 13
2 2 2 2 2 2 3 3 3 3 3 3 3 4 5 6 3 4 4 2 2 2 12 5 5 1 2 5 5 5 2 4 6 6 6 7 6 6 8 6 7 7 7 8 8 8 9
2 3 3 2 2 2 2 3 3 3 3 3 3 4 5 4 3 3 2 3 2 8 12 7 5 5 5 5 5 5 4 3 3 5 5 6 5 6 6 6 7 6 8 8 8 8 12
3 3 3 3 3 3 3 3 3 3 3 4 4 5 5 3 3 2 2 3 7 10 6 7 6 5 6 6 6 6 6 6 7 8 8 6 6 6 5 7 6 7 8 12 13 13 12
3 3 4 3 3 3 4 4 4 4 4 5 6 7 5 3 2 2 3 5 10 8 7 5 6 6 7 6 6 6 6 7 5 6 7 9 10 6 5 6 7 7 7 10 15 12 10
4 4 3 3 3 4 4 4 4 4 5 6 7 2 4 3 3 3 6 9 9 7 6 7 6 7 7 6 6 6 7 7 6 5 8 8 9 6 5 5 5 7 9 6 9 9 11
3 3 3 4 4 4 4 4 4 4 5 6 4 4 4 4 4 5 8 11 8 6 5 6 8 7 8 7 7 7 7 5 6 5 4 6 9 6 6 5 5 6 5 9 9 13 14
3 4 4 4 4 4 4 4 4 5 6 7 5 6 5 4 4 7 10 9 8 6 5 6 7 7 7 7 7 7 7 6 5 5 4 5 7 8 6 7 7 7 8 7 8 9 12
4 4 4 4 4 4 4 4 5 6 7 6 5 7 5 4 9 8 10 9 10 7 5 5 7 7 7 6 7 7 7 6 5 4 6 5 7 9 8 6 5 6 7 7 10 11 9
4 4 4 5 5 5 4 4 5 5 6 4 6 6 4 5 10 10 9 9 8 8 7 6 7 7 6 6 8 6 6 5 5 5 6 5 7 10 9 7 6 7 7 6 7 7 10
4 4 4 4 4 4 4 4 5 5 6 4 6 7 6 6 7 9 9 10 10 8 8 7 7 6 6 7 6 7 7 6 5 5 4 4 7 8 10 9 7 8 7 7 7 9 9
5 5 5 4 4 4 4 4 4 5 6 4 4 6 6 7 7 8 7 8 9 9 7 5 6 7 7 7 7 7 6 6 5 6 5 5 8 7 7 7 7 7 8 7 8 7 9
5 5 5 4 4 4 4 4 4 4 5 3 6 6 4 6 6 7 9 8 9 8 8 8 7 6 6 7 6 7 6 6 6 5 5 5 8 7 8 7 7 8 7 7 7 7 7
5 5 5 4 4 4 4 4 4 4 5 3 3 3 5 7 6 7 7 8 8 8 8 7 6 7 7 6 5 4 4 4 4 5 6 6 7 8 10 7 8 10 8 7 7 6 6
5 4 4 3 2 3 3 3 3 3 4 5 5 5 6 8 6 7 7 7 7 7 8 8 7 6 5 3 3 4 4 4 4 5 4 6 7 7 9 9 13 7 5 6 7 6 6
4 4 3 3 2 2 2 2 2 2 3 4 4 6 7 9 6 6 6 7 6 6 7 8 8 5 3 4 7 8 7 7 6 5 5 5 6 8 10 10 9 8 7 7 8 8 6
3 3 2 2 2 1 1 1 1 1 3 3 4 4 6 8 8 6 6 6 7 7 8 8 6 4 3 6 8 11 11 8 9 8 5 5 5 8 9 11 13 8 5 4 5 10 5
3 2 2 2 1 1 1 0 -0 -0 2 2 3 2 4 7 5 6 7 7 5 6 7 7 6 6 4 7 9 10 10 7 10 10 9 8 8 9 10 10 8 6 5 4 10 8 4
2 2 1 1 1 1 1 0 -0 -1 1 1 2 2 4 6 6 4 4 5 5 5 8 6 8 6 7 9 9 9 9 8 8 7 8 9 10 9 9 10 12 4 5 8 5 4 4
2 2 2 2 1 1 0 0 -0 0 1 1 3 1 2 6 5 3 2 1 2 3 5 5 6 6 6 9 7 7 8 7 7 10 7 9 7 8 7 8 5 4 4 3 3 4 3